Wind_Speed
33 28 23 29 31 30 28 30 22 19 21 24 30 33 36 43 39 36 43 66 55 42 62 74 74 68 64 58 65 66 72 80 78 75 84 85 97 101 106 111 107 99 91 87
34 31 32 31 30 28 29 29 25 31 25 36 47 52 52 50 48 48 50 41 40 59 71 70 67 51 54 58 67 72 75 78 83 86 94 99 102 108 113 109 100 89 77 72
33 34 35 30 27 27 24 28 35 40 43 45 50 55 59 57 51 50 48 52 60 69 72 64 63 55 61 69 75 79 87 94 96 101 104 107 111 114 107 95 80 68 64 61
33 35 31 23 24 27 29 31 40 45 50 50 52 54 54 53 51 48 55 60 55 66 63 66 79 80 81 85 92 95 100 101 105 106 108 110 113 103 85 72 60 55 53 54
35 28 23 24 25 27 34 39 40 45 50 52 50 48 46 45 43 45 50 57 64 65 71 76 79 86 86 89 92 93 96 99 102 103 105 103 81 77 62 53 49 47 49 52
34 27 21 26 31 33 34 39 44 48 51 53 50 45 42 39 37 41 49 52 58 66 73 79 82 77 78 83 89 95 99 97 89 84 75 67 63 52 44 41 42 45 45 46
34 19 21 24 30 31 33 39 47 53 54 54 54 48 45 39 33 35 41 44 51 59 62 65 71 74 76 70 63 65 68 67 62 58 57 50 43 38 35 37 39 40 41 40
35 23 25 23 32 35 38 43 46 48 50 52 54 51 46 44 42 39 38 39 42 45 46 49 50 52 53 57 58 60 57 55 51 47 41 35 30 29 31 33 34 33 37 37
36 29 33 30 32 34 41 44 47 48 51 54 55 57 48 44 41 39 40 40 42 45 46 46 48 51 53 55 54 52 48 46 42 37 31 25 23 25 26 26 26 30 33 33
29 30 38 39 35 36 42 46 48 52 54 57 58 59 54 48 46 44 41 42 44 45 45 48 52 52 51 52 53 52 48 43 37 30 22 17 16 15 20 24 24 26 29 30
37 32 38 41 41 42 46 48 51 53 57 59 61 61 59 55 53 50 48 48 48 49 49 47 52 52 51 51 51 48 45 40 32 23 15 12 8 14 19 24 24 23 24 26
34 33 38 43 44 43 47 50 53 54 58 62 64 66 63 58 56 56 55 51 51 50 51 50 54 56 54 52 51 47 42 37 27 16 11 7 8 14 18 18 22 19 20 23
36 36 40 45 45 45 47 50 53 57 59 63 67 68 68 63 61 62 61 62 57 51 52 53 55 56 51 51 51 46 40 34 25 14 8 5 9 13 16 15 15 16 17 21
37 40 43 43 45 48 50 53 55 58 61 66 70 73 72 68 67 69 68 68 64 52 52 52 51 56 46 50 48 46 38 33 23 13 8 7 8 12 12 11 8 10 14 17
39 44 44 46 49 48 51 56 59 59 60 69 72 74 75 74 73 73 74 74 78 62 55 54 54 50 48 51 48 45 35 30 22 14 11 10 8 10 8 7 7 6 8 13
42 44 43 45 49 51 49 54 62 65 68 74 77 79 79 79 80 79 77 81 70 63 61 59 58 56 52 53 48 44 36 28 22 16 15 13 9 8 5 2 5 7 10 14
43 42 42 46 47 52 55 56 59 63 71 76 80 81 84 83 84 83 84 83 74 67 66 65 59 58 54 50 49 43 34 25 22 16 18 17 13 8 5 3 2 5 9 13
44 42 43 45 49 55 57 60 64 67 72 78 81 83 83 87 89 91 93 86 77 73 69 67 66 60 56 51 46 39 33 24 22 17 20 21 18 11 10 9 7 8 11 13
39 41 44 46 49 53 60 64 67 71 76 80 83 83 86 90 93 98 94 87 79 73 68 66 63 58 53 52 44 36 32 26 20 19 20 24 20 16 15 16 14 15 15 12
39 42 44 48 52 57 62 68 72 76 80 84 85 88 91 94 99 92 86 78 72 67 59 54 52 55 53 50 43 35 31 25 21 20 20 26 25 21 20 21 21 21 19 17
39 44 46 49 54 60 65 69 75 80 85 87 90 94 96 100 93 86 70 63 59 54 50 46 42 43 43 45 44 36 32 27 22 22 22 25 31 26 24 27 28 27 25 23
45 45 49 52 57 62 67 72 77 83 85 88 91 95 99 92 85 76 66 57 54 48 42 37 34 35 36 39 41 41 41 36 33 26 25 27 32 34 29 29 32 32 30 30
45 49 50 55 60 64 69 74 78 81 86 89 93 97 92 85 75 68 60 56 51 43 37 32 29 29 29 31 35 42 45 40 36 31 31 31 32 38 37 33 35 37 37 36
48 48 53 58 61 67 71 76 80 83 88 93 97 89 81 73 65 59 56 56 51 43 36 29 25 24 26 27 30 36 44 44 42 39 38 38 37 38 43 41 38 40 42 41
46 51 55 59 65 70 73 77 80 84 91 95 87 78 71 60 58 57 56 54 51 46 38 31 27 23 22 24 26 31 38 44 48 48 45 43 43 40 43 48 44 42 43 46
48 53 58 63 68 72 75 79 83 90 96 88 79 74 62 58 56 56 54 52 49 47 43 37 30 26 22 22 24 27 32 38 46 47 49 49 49 46 43 47 51 48 45 44
Wind_Direction
328 327 326 314 311 313 293 274 288 286 292 299 316 311 303 289 297 279 278 294 288 285 296 302 297 300 300 296 296 292 293 298 300 297 298 295 297 296 295 297 300 299 292 287
326 327 320 319 309 299 295 287 296 305 288 310 314 313 307 302 297 290 287 268 259 285 298 303 307 306 297 292 294 297 295 294 294 292 292 294 294 297 300 301 301 297 294 291
326 325 324 319 306 311 309 317 327 328 323 323 316 309 304 298 289 282 271 257 270 286 291 296 301 292 288 288 288 289 293 293 290 293 294 295 297 299 300 301 298 297 296 295
326 327 324 320 313 315 319 324 321 326 330 323 311 302 300 297 291 279 274 276 274 275 281 281 287 289 285 287 288 289 289 292 293 294 297 300 300 301 302 299 299 298 298 299
327 328 322 314 310 310 316 322 331 335 336 336 327 320 313 307 297 288 280 275 280 277 280 283 285 290 291 290 290 292 292 292 293 295 297 298 302 301 300 301 302 302 306 305
329 331 320 317 319 319 323 329 332 336 336 340 344 335 326 320 312 301 289 281 278 279 281 283 287 292 295 294 293 292 291 293 296 297 298 302 300 300 303 304 307 308 309 308
332 320 307 321 315 317 318 322 326 330 337 345 349 347 340 334 324 312 304 299 295 294 294 294 295 295 295 295 299 301 300 302 304 306 304 301 301 306 308 312 313 315 315 318
330 317 309 301 311 316 321 323 323 328 333 340 347 349 344 340 335 327 319 312 308 307 309 304 303 307 314 315 313 310 312 312 310 308 306 306 311 314 319 319 320 322 330 328
329 316 312 312 309 315 324 327 326 331 334 340 344 349 347 343 335 326 323 317 314 310 316 318 324 326 320 317 321 321 318 317 317 315 314 316 325 329 332 333 333 338 340 343
318 311 315 320 320 322 327 331 332 335 339 342 345 347 346 343 339 332 324 318 315 316 313 317 319 326 325 325 327 330 329 325 324 319 319 329 338 349 352 354 349 350 351 1
320 315 316 322 323 325 327 331 336 339 339 339 341 345 343 342 341 337 332 323 319 314 314 314 314 321 327 331 330 332 332 330 326 322 324 335 351 352 352 2 2 1 6 17
320 314 314 320 324 324 329 330 332 333 337 339 340 341 341 338 337 334 336 330 323 316 313 316 319 324 328 331 331 333 333 331 327 320 324 321 341 347 350 351 9 12 21 35
314 314 317 321 322 322 322 324 329 333 334 334 335 336 338 338 336 335 335 336 334 319 315 318 318 321 323 332 329 330 332 332 325 312 307 282 330 343 344 351 12 26 39 51
315 315 317 319 320 321 322 326 328 331 331 331 334 334 336 335 334 334 331 333 334 324 321 318 316 320 317 327 328 327 329 330 323 296 273 267 313 333 337 349 5 31 54 59
314 314 315 316 320 321 325 326 327 329 328 330 331 331 333 333 332 331 331 330 332 328 321 314 314 317 316 317 324 323 323 323 322 286 260 253 290 324 342 354 16 24 49 68
315 315 314 318 319 321 326 326 326 326 327 329 330 331 333 331 331 330 329 330 325 319 315 314 312 311 314 312 319 319 319 316 316 280 255 248 262 304 328 11 44 66 84 90
311 314 317 317 318 320 323 326 326 325 327 330 330 331 329 329 328 328 328 327 321 314 309 306 305 305 306 306 309 312 308 305 304 282 250 245 246 263 268 199 133 107 107 103
314 317 319 319 321 321 323 324 325 326 327 326 327 328 327 327 327 328 326 324 319 313 307 302 300 300 299 300 300 302 295 296 293 284 247 242 244 240 234 213 202 167 142 125
318 319 321 319 319 320 320 323 325 324 325 326 326 326 327 327 327 326 324 320 315 309 302 297 293 291 291 288 292 292 285 281 275 277 256 235 238 233 225 214 204 181 166 158
319 320 320 317 319 319 322 325 324 324 325 326 327 327 328 327 326 324 322 317 312 310 305 297 288 281 280 278 280 277 276 266 263 261 257 240 228 229 223 215 207 198 194 182
314 317 318 319 320 321 325 324 323 325 327 328 328 328 327 326 324 323 323 320 316 311 305 298 289 282 273 268 268 261 264 247 254 253 253 243 229 223 222 218 211 210 203 202
316 315 316 318 321 323 325 323 326 327 327 328 327 327 326 326 326 328 330 326 325 321 314 303 291 278 271 263 256 253 249 241 251 247 245 246 233 223 219 220 215 213 212 207
315 315 318 321 324 325 325 326 325 325 328 328 327 328 328 329 331 332 333 337 336 331 328 317 301 286 272 265 255 244 247 246 244 244 246 241 236 225 220 219 220 216 216 215
316 318 322 325 324 325 325 326 327 328 328 330 330 331 331 332 330 335 340 342 342 341 337 332 317 298 284 271 260 247 242 244 246 245 243 238 235 229 221 221 221 221 220 219
317 321 323 323 325 326 327 326 328 328 331 331 332 333 333 330 334 339 342 343 345 346 344 338 331 317 295 280 267 254 245 240 240 239 236 232 234 227 224 221 223 223 223 223
319 322 324 326 326 328 327 329 330 332 333 334 335 335 333 335 340 340 341 343 345 348 348 347 338 328 318 294 274 261 250 242 239 238 233 229 228 226 224 223 222 224 225 225
Height
10884 10885 10883 10875 10871 10867 10862 10854 10849 10844 10843 10837 10832 10825 10819 10816 10812 10807 10801 10783 10766 10754 10749 10747 10744 10737 10727 10716 10710 10706 10698 10689 10681 10676 10671 10664 10656 10647 10637 10626 10611 10598 10586 10576
10876 10876 10872 10869 10863 10859 10855 10848 10847 10841 10840 10833 10824 10814 10809 10807 10802 10797 10791 10774 10756 10747 10742 10729 10725 10721 10715 10707 10697 10690 10682 10676 10668 10659 10650 10642 10633 10622 10610 10599 10584 10573 10560 10551
10872 10868 10862 10857 10853 10851 10848 10842 10837 10834 10830 10823 10813 10806 10796 10791 10787 10783 10777 10766 10751 10742 10733 10727 10717 10711 10703 10694 10685 10673 10666 10657 10648 10641 10632 10623 10614 10602 10590 10578 10565 10552 10543 10534
10870 10863 10857 10854 10850 10844 10841 10840 10834 10828 10818 10810 10802 10793 10784 10775 10770 10765 10758 10750 10747 10735 10723 10718 10709 10699 10691 10683 10671 10659 10649 10638 10627 10620 10610 10599 10589 10578 10567 10558 10548 10539 10530 10520
10866 10860 10855 10850 10846 10841 10835 10829 10827 10820 10809 10798 10784 10776 10768 10760 10754 10749 10743 10738 10728 10721 10714 10706 10695 10687 10677 10667 10655 10644 10632 10619 10611 10601 10592 10583 10570 10562 10553 10544 10535 10527 10518 10508
10864 10857 10852 10846 10840 10836 10829 10820 10816 10811 10805 10793 10781 10769 10759 10751 10743 10736 10730 10726 10717 10712 10703 10695 10686 10677 10668 10658 10643 10631 10618 10607 10595 10585 10577 10568 10560 10551 10542 10535 10527 10518 10509 10498
10858 10855 10849 10846 10839 10833 10827 10820 10812 10802 10794 10784 10774 10765 10754 10746 10737 10729 10723 10717 10711 10701 10693 10685 10675 10666 10655 10644 10630 10616 10604 10593 10581 10571 10565 10559 10548 10541 10534 10527 10519 10511 10502 10490
10853 10849 10845 10843 10835 10828 10823 10815 10808 10800 10791 10782 10770 10760 10750 10739 10730 10722 10715 10708 10700 10690 10682 10672 10663 10652 10640 10628 10619 10604 10590 10580 10571 10563 10555 10546 10540 10535 10529 10522 10515 10507 10496 10484
10842 10839 10836 10835 10830 10823 10814 10808 10799 10792 10782 10772 10762 10754 10743 10736 10728 10718 10709 10701 10692 10682 10671 10660 10650 10641 10630 10617 10605 10591 10582 10571 10561 10552 10545 10540 10536 10531 10526 10520 10513 10504 10493 10481
10839 10833 10824 10821 10820 10814 10807 10798 10789 10778 10768 10760 10752 10743 10734 10726 10718 10710 10702 10692 10683 10672 10662 10651 10638 10632 10621 10605 10593 10580 10570 10560 10552 10545 10541 10537 10534 10530 10526 10519 10512 10504 10494 10481
10834 10826 10818 10812 10807 10802 10795 10790 10780 10770 10760 10752 10743 10734 10723 10714 10706 10698 10690 10681 10671 10660 10651 10643 10632 10623 10612 10598 10585 10574 10563 10555 10548 10542 10539 10535 10533 10530 10525 10519 10512 10505 10497 10486
10827 10822 10815 10809 10801 10797 10789 10780 10774 10765 10755 10743 10732 10723 10714 10705 10696 10687 10681 10671 10661 10649 10638 10630 10617 10605 10598 10590 10578 10569 10560 10551 10545 10540 10537 10535 10532 10529 10525 10521 10514 10508 10501 10492
10821 10816 10808 10800 10796 10790 10785 10778 10769 10756 10747 10737 10727 10717 10706 10695 10684 10672 10663 10655 10647 10636 10625 10616 10606 10597 10589 10581 10571 10563 10555 10548 10543 10538 10535 10533 10532 10528 10525 10521 10517 10512 10506 10499
10812 10807 10802 10796 10790 10783 10774 10766 10759 10750 10739 10729 10716 10705 10693 10682 10672 10660 10648 10641 10636 10626 10615 10605 10597 10588 10579 10573 10565 10557 10550 10543 10539 10536 10533 10532 10531 10528 10525 10521 10518 10515 10510 10506
10805 10800 10793 10786 10781 10776 10768 10754 10748 10743 10732 10720 10709 10697 10684 10671 10660 10648 10634 10619 10610 10607 10600 10594 10585 10577 10570 10564 10558 10551 10546 10539 10535 10532 10531 10530 10529 10528 10525 10522 10519 10516 10514 10509
10799 10792 10787 10780 10771 10765 10762 10751 10735 10723 10717 10706 10692 10679 10669 10656 10643 10631 10620 10609 10597 10588 10581 10577 10570 10564 10559 10553 10548 10543 10538 10534 10529 10528 10528 10526 10526 10526 10524 10523 10521 10518 10516 10512
10795 10789 10781 10775 10766 10755 10749 10742 10733 10721 10708 10693 10680 10667 10653 10639 10628 10618 10603 10591 10582 10574 10564 10557 10555 10548 10545 10543 10538 10534 10530 10528 10524 10522 10522 10523 10523 10523 10523 10522 10521 10520 10518 10515
10787 10781 10774 10767 10757 10744 10739 10731 10721 10711 10698 10685 10672 10658 10643 10626 10610 10596 10584 10575 10565 10555 10548 10539 10534 10534 10530 10527 10526 10524 10521 10519 10517 10515 10515 10517 10519 10520 10520 10520 10521 10520 10519 10518
10781 10773 10766 10758 10751 10740 10727 10720 10710 10699 10689 10674 10661 10645 10629 10610 10591 10576 10560 10546 10539 10530 10523 10518 10514 10513 10512 10509 10511 10511 10509 10507 10507 10507 10507 10509 10512 10515 10515 10516 10518 10518 10518 10517
10773 10766 10759 10751 10742 10732 10719 10708 10695 10686 10673 10659 10644 10627 10611 10594 10577 10561 10546 10528 10511 10499 10494 10490 10489 10488 10490 10491 10493 10496 10496 10496 10496 10497 10499 10501 10504 10507 10510 10511 10513 10514 10515 10515
10769 10759 10752 10743 10733 10721 10712 10698 10684 10670 10656 10639 10623 10607 10590 10575 10556 10540 10526 10510 10496 10484 10474 10467 10466 10464 10467 10469 10474 10479 10482 10484 10486 10487 10490 10491 10495 10498 10502 10504 10506 10508 10510 10512
10758 10751 10744 10735 10725 10713 10702 10689 10673 10657 10642 10629 10613 10594 10574 10554 10535 10517 10504 10491 10478 10466 10457 10452 10449 10446 10447 10449 10454 10459 10465 10471 10473 10475 10478 10481 10484 10489 10492 10495 10498 10501 10503 10505
10748 10742 10734 10725 10715 10704 10691 10678 10666 10651 10634 10618 10601 10578 10553 10532 10516 10503 10488 10477 10466 10455 10446 10439 10435 10433 10433 10435 10438 10441 10445 10452 10457 10461 10465 10469 10472 10477 10482 10484 10488 10492 10494 10497
10740 10732 10724 10715 10706 10695 10682 10668 10652 10636 10620 10601 10580 10560 10541 10523 10507 10496 10482 10470 10458 10449 10439 10432 10426 10423 10422 10423 10424 10426 10428 10434 10440 10446 10452 10455 10460 10463 10468 10473 10476 10481 10484 10487
10732 10724 10716 10706 10696 10683 10671 10657 10643 10626 10608 10587 10568 10550 10532 10517 10502 10489 10477 10466 10455 10445 10436 10428 10422 10417 10414 10412 10412 10413 10415 10419 10424 10428 10434 10440 10446 10450 10454 10459 10465 10469 10473 10478
10726 10717 10706 10695 10684 10672 10658 10643 10628 10610 10590 10570 10552 10535 10519 10506 10495 10484 10473 10462 10452 10442 10433 10425 10419 10413 10410 10406 10402 10402 10403 10405 10408 10413 10417 10422 10428 10436 10439 10445 10451 10456 10461 10466